Home   Weather   Al Jizah   Past weeks

Flag for Egypt Past Weather in Al Jizah, Egypt — Yesterday and Last 2 Weeks

Now
57 °F

Clear.


Feels Like: 55 °F
Forecast: 51 / 77 °F
Wind: 10 mph from Northeast

Location: Cairo Airport

Current Time: Feb 25, 2017 at 2:58:02 am

Latest Report: Feb 25, 2017 at 2:00 am


Visibility: 10 mi

Pressure: 30.24 "Hg

Humidity: 94%

Dew Point: 55 °F

Location of Al JizahLocation

Past Weather in Al Jizah — Graph

°F

Al Jizah Temperature Yesterday

Maximum temperature yesterday: 72 °F (at 2:00 pm)
Minimum temperature yesterday: 52 °F (at 6:00 am)
Average temperature yesterday: 61 °F

High & Low Weather Summary for the Past Weeks

 TemperatureHumidityPressure
High72 °F (Feb 24, 2:00 pm)100% (Feb 24, 8:00 am)30.36 "Hg (Feb 24, 8:00 am)
Low45 °F (Feb 17, 6:30 am)32% (Feb 22, 3:00 pm)29.95 "Hg (Feb 11, 2:00 pm)
Average58 °F63%30.15 "Hg
* Reported Feb 10 1:00 am — Feb 25 1:30 am, Al Jizah, Weather by CustomWeather, © 2017

Note: Actual official high and low records may vary slightly from our data, if they occured in-between our weather recording intervals... More about our weather records

Advertising

Al Jizah Weather History for the Previous 24 Hours

Scroll right to see more
 ConditionsComfort  
Time TempWeatherWind HumidityBarometerVisibility
1:30 am
Sat, Feb 25
57 °FClear.8 mph88%30.24 "Hg10 mi
1:00 am57 °FClear.10 mph88%30.24 "Hg10 mi
12:30 am59 °FClear.9 mph88%30.24 "Hg10 mi
12:00 am59 °FClear.12 mph82%30.24 "Hg10 mi
11:30 pm
Fri, Feb 24
59 °FClear.12 mph82%30.24 "Hg10 mi
11:00 pm59 °FClear.12 mph82%30.24 "Hg10 mi
10:30 pm61 °FClear.12 mph77%30.24 "Hg10 mi
10:00 pm61 °FClear.12 mph77%30.24 "Hg10 mi
9:00 pm63 °FClear.14 mph68%30.24 "Hg10 mi
8:30 pm63 °FClear.14 mph68%30.24 "Hg10 mi
8:00 pm64 °FClear.14 mph64%30.21 "Hg10 mi
7:30 pm64 °FClear.16 mph64%30.21 "Hg10 mi
7:00 pm66 °FClear.14 mph60%30.21 "Hg10 mi
6:30 pm66 °FClear.15 mph60%30.18 "Hg10 mi
6:00 pm68 °FClear.15 mph56%30.18 "Hg10 mi
5:30 pm70 °FSunny.15 mph46%30.18 "Hg10 mi
5:00 pm72 °FSunny.15 mph44%30.18 "Hg10 mi
4:30 pm72 °FPassing clouds.15 mph44%30.18 "HgN/A
4:00 pm72 °FPassing clouds.14 mph44%30.15 "HgN/A
3:30 pm72 °FPassing clouds.12 mph44%30.18 "HgN/A
3:00 pm72 °FPassing clouds.13 mph44%30.18 "HgN/A
2:30 pm72 °FPassing clouds.12 mph44%30.18 "HgN/A
2:00 pm72 °FPassing clouds.13 mph47%30.18 "HgN/A
1:30 pm70 °FPassing clouds.14 mph50%30.18 "HgN/A
1:00 pm68 °FPassing clouds.14 mph53%30.21 "HgN/A
12:30 pm68 °FPassing clouds.15 mph56%30.21 "HgN/A
12:00 pm66 °FScattered clouds.16 mph56%30.24 "HgN/A
11:00 am64 °FScattered clouds.17 mph64%30.24 "HgN/A
10:30 am63 °FScattered clouds.17 mph68%30.27 "HgN/A
10:00 am61 °FScattered clouds.16 mph77%30.27 "HgN/A
9:30 am59 °FPassing clouds.14 mph82%30.27 "HgN/A
9:00 am57 °FClear.12 mph88%30.27 "Hg4 mi
8:30 am55 °FClear.10 mph94%30.27 "Hg4 mi
8:00 am54 °FClear.5 mph100%30.24 "Hg4 mi
7:30 am54 °FFog.3 mph94%30.24 "Hg2 mi
7:00 am52 °FFog.1 mph94%30.24 "Hg2 mi
6:30 am52 °FFog.8 mph94%30.21 "Hg2 mi
6:00 am52 °FFog.8 mph94%30.21 "Hg2 mi
5:30 am54 °FClear.6 mph88%30.21 "Hg4 mi
5:00 am54 °FClear.No wind88%30.21 "Hg4 mi
4:30 am54 °FClear.6 mph88%30.21 "Hg4 mi
4:00 am54 °FClear.6 mph88%30.21 "Hg4 mi
3:30 am55 °FClear.6 mph88%30.21 "Hg4 mi
3:00 am55 °FClear.6 mph82%30.21 "Hg4 mi
2:30 am55 °FClear.8 mph82%30.21 "Hg4 mi
2:00 am55 °FClear.8 mph88%30.21 "Hg4 mi
Weather by CustomWeather, © 2017

See weather overviewHow to use our weather pages